Location: *
(46.1833°N, 22.7667°E)
Time: 10:46:43
(UTC+00:00)

Resurs 1-3 - Pass Details

Date: 17 September 2019
Orbit: 630 x 632 km, 98.0° (Epoch: 17 October)

Event Time Altitude Azimuth Distance (km) Brightness Sun altitude
Exits shadow 18:39:27 45° 166° (SSE) 869 4.0 -21.1°
Maximum altitude 18:40:49 90° 259° (WSW) 639 3.5 -21.3°
Drops below altitude 10° 18:45:14 10° 347° (NNW) 2,025 6.7 -22.0°
Sets 18:47:26 0° 347° (NNW) 2,937 7.6 -22.3°
